QPF
0.02 0.02 0.02 0.01 0.01 0.00 0.01 0.01 0.01 0.01 0.01 0.01 0.01 0.01 0.01 0.01 0.01 0.01 0.00 0.01 0.01 0.03 0.03 0.04 0.05 0.05 0.06 0.06 0.05 0.04 0.04 0.05 0.04 0.04 0.04 0.05 0.05 0.05 0.04 0.03 0.02 0.02 0.02
0.01 0.02 0.02 0.02 0.01 0.01 0.01 0.01 0.01 0.01 0.01 0.01 0.01 0.01 0.01 0.01 0.01 0.01 0.00 0.00 0.01 0.01 0.02 0.03 0.04 0.04 0.05 0.05 0.06 0.05 0.05 0.04 0.04 0.04 0.04 0.05 0.07 0.07 0.04 0.03 0.02 0.02 0.02
0.01 0.01 0.02 0.01 0.01 0.00 0.00 0.01 0.01 0.01 0.01 0.01 0.01 0.01 0.01 0.00 0.00 0.01 0.01 0.01 0.01 0.01 0.01 0.02 0.02 0.03 0.03 0.04 0.05 0.06 0.06 0.06 0.05 0.03 0.04 0.06 0.06 0.07 0.07 0.05 0.03 0.02 0.02
0.00 0.01 0.01 0.01 0.01 0.00 0.00 0.00 0.01 0.01 0.01 0.01 0.01 0.01 0.01 0.01 0.01 0.01 0.01 0.01 0.00 0.01 0.01 0.01 0.02 0.02 0.02 0.03 0.04 0.05 0.06 0.06 0.07 0.06 0.04 0.04 0.04 0.05 0.05 0.06 0.05 0.04 0.03
0.00 0.00 0.01 0.01 0.01 0.00 0.00 0.00 0.00 0.01 0.01 0.01 0.01 0.01 0.01 0.01 0.01 0.01 0.01 0.01 0.01 0.01 0.01 0.01 0.01 0.02 0.02 0.02 0.03 0.04 0.06 0.07 0.07 0.07 0.06 0.04 0.04 0.03 0.03 0.03 0.05 0.05 0.04
0.00 0.00 0.01 0.02 0.01 0.00 0.00 0.00 0.01 0.01 0.01 0.01 0.01 0.01 0.01 0.01 0.01 0.01 0.01 0.01 0.02 0.02 0.01 0.01 0.01 0.02 0.02 0.02 0.02 0.04 0.06 0.07 0.07 0.07 0.06 0.05 0.04 0.04 0.03 0.02 0.02 0.03 0.03
0.00 0.00 0.00 0.01 0.01 0.01 0.01 0.01 0.01 0.01 0.01 0.01 0.01 0.01 0.01 0.01 0.01 0.01 0.01 0.01 0.01 0.02 0.02 0.02 0.02 0.02 0.02 0.02 0.02 0.03 0.05 0.06 0.06 0.06 0.06 0.06 0.04 0.04 0.03 0.02 0.02 0.03 0.03
0.00 0.00 0.00 0.01 0.01 0.01 0.01 0.01 0.01 0.01 0.01 0.01 0.01 0.01 0.01 0.01 0.01 0.01 0.01 0.01 0.01 0.01 0.02 0.02 0.02 0.02 0.02 0.02 0.03 0.03 0.04 0.06 0.07 0.06 0.06 0.06 0.06 0.04 0.04 0.03 0.03 0.03 0.04
0.00 0.00 0.00 0.01 0.01 0.01 0.01 0.01 0.01 0.01 0.01 0.01 0.01 0.01 0.00 0.00 0.00 0.00 0.01 0.01 0.01 0.01 0.01 0.01 0.01 0.01 0.02 0.02 0.02 0.03 0.03 0.04 0.06 0.06 0.06 0.06 0.06 0.05 0.04 0.03 0.03 0.04 0.04
0.00 0.01 0.00 0.01 0.01 0.01 0.01 0.01 0.00 0.01 0.01 0.01 0.01 0.00 0.00 0.00 0.00 0.00 0.00 0.00 0.00 0.01 0.01 0.01 0.01 0.01 0.01 0.01 0.02 0.02 0.03 0.03 0.04 0.05 0.06 0.06 0.06 0.05 0.04 0.03 0.03 0.03 0.03
0.00 0.01 0.00 0.01 0.01 0.01 0.01 0.01 0.01 0.00 0.01 0.01 0.01 0.01 0.00 0.00 0.00 0.00 0.00 0.00 0.00 0.00 0.00 0.00 0.01 0.01 0.01 0.01 0.01 0.01 0.02 0.02 0.03 0.03 0.04 0.05 0.05 0.06 0.05 0.04 0.03 0.03 0.03
0.01 0.01 0.01 0.00 0.01 0.01 0.01 0.01 0.01 0.01 0.01 0.01 0.00 0.00 0.00 0.00 0.00 0.00 0.00 0.00 0.00 0.00 0.00 0.00 0.01 0.01 0.01 0.01 0.01 0.01 0.01 0.02 0.02 0.03 0.03 0.03 0.04 0.05 0.05 0.05 0.04 0.03 0.03
0.00 0.01 0.01 0.00 0.00 0.01 0.00 0.00 0.01 0.01 0.01 0.01 0.00 0.00 0.00 0.00 0.00 0.00 0.00 0.00 0.00 0.00 0.00 0.00 0.01 0.01 0.01 0.01 0.01 0.01 0.01 0.02 0.02 0.03 0.03 0.03 0.03 0.04 0.05 0.05 0.05 0.04 0.03
0.00 0.01 0.01 0.00 0.00 0.01 0.00 0.00 0.00 0.00 0.01 0.01 0.00 0.00 0.00 0.00 0.00 0.00 0.00 0.00 0.00 0.00 0.01 0.01 0.01 0.01 0.02 0.01 0.01 0.01 0.01 0.02 0.02 0.03 0.04 0.04 0.04 0.04 0.05 0.05 0.05 0.05 0.04
0.00 0.00 0.01 0.01 0.00 0.00 0.00 0.00 0.00 0.00 0.00 0.00 0.00 0.00 0.00 0.00 0.00 0.00 0.00 0.00 0.00 0.00 0.00 0.00 0.01 0.01 0.01 0.02 0.02 0.02 0.02 0.02 0.02 0.03 0.03 0.04 0.05 0.05 0.05 0.06 0.06 0.06 0.06
0.00 0.00 0.00 0.00 0.00 0.00 0.00 0.00 0.00 0.00 0.00 0.00 0.00 0.01 0.01 0.01 0.00 0.00 0.00 0.00 0.00 0.00 0.00 0.00 0.00 0.01 0.01 0.01 0.02 0.02 0.02 0.02 0.03 0.03 0.03 0.04 0.05 0.05 0.05 0.05 0.06 0.07 0.07
0.01 0.00 0.00 0.00 0.00 0.01 0.01 0.00 0.01 0.01 0.00 0.00 0.00 0.01 0.01 0.01 0.00 0.00 0.00 0.00 0.00 0.00 0.00 0.00 0.00 0.00 0.01 0.01 0.02 0.02 0.02 0.02 0.02 0.02 0.02 0.03 0.04 0.05 0.04 0.03 0.04 0.04 0.06
0.01 0.01 0.00 0.00 0.01 0.01 0.00 0.00 0.01 0.01 0.01 0.01 0.01 0.01 0.01 0.01 0.00 0.00 0.00 0.00 0.00 0.00 0.00 0.00 0.00 0.00 0.00 0.01 0.01 0.02 0.02 0.02 0.02 0.01 0.01 0.02 0.03 0.04 0.05 0.04 0.04 0.04 0.04
0.00 0.01 0.01 0.01 0.00 0.01 0.00 0.00 0.01 0.01 0.01 0.01 0.01 0.01 0.01 0.01 0.00 0.00 0.00 0.00 0.00 0.00 0.00 0.00 0.00 0.00 0.00 0.00 0.01 0.02 0.02 0.02 0.02 0.01 0.01 0.01 0.02 0.04 0.05 0.06 0.06 0.05 0.05
0.00 0.00 0.00 0.00 0.00 0.01 0.00 0.00 0.00 0.00 0.00 0.01 0.01 0.01 0.01 0.01 0.01 0.01 0.01 0.00 0.00 0.00 0.00 0.00 0.00 0.00 0.00 0.00 0.00 0.01 0.01 0.02 0.01 0.01 0.01 0.01 0.02 0.04 0.05 0.05 0.06 0.07 0.06
0.00 0.00 0.00 0.00 0.00 0.00 0.00 0.00 0.00 0.00 0.00 0.00 0.00 0.00 0.01 0.01 0.01 0.01 0.01 0.00 0.00 0.00 0.00 0.00 0.00 0.00 0.00 0.00 0.00 0.01 0.01 0.02 0.02 0.01 0.01 0.01 0.01 0.03 0.04 0.06 0.06 0.06 0.06
0.00 0.00 0.00 0.00 0.00 0.00 0.00 0.00 0.00 0.00 0.00 0.00 0.00 0.00 0.01 0.01 0.01 0.01 0.01 0.01 0.01 0.01 0.01 0.00 0.00 0.00 0.00 0.00 0.00 0.01 0.01 0.01 0.02 0.02 0.01 0.01 0.01 0.02 0.03 0.04 0.05 0.05 0.05
0.00 0.00 0.00 0.00 0.00 0.00 0.00 0.00 0.00 0.00 0.00 0.00 0.00 0.00 0.00 0.00 0.00 0.01 0.01 0.01 0.01 0.01 0.01 0.01 0.01 0.01 0.00 0.00 0.00 0.01 0.01 0.01 0.01 0.01 0.01 0.01 0.01 0.01 0.02 0.03 0.03 0.04 0.04
0.00 0.00 0.00 0.00 0.00 0.00 0.00 0.00 0.00 0.00 0.00 0.00 0.00 0.00 0.00 0.00 0.00 0.00 0.00 0.01 0.01 0.01 0.01 0.01 0.01 0.01 0.01 0.01 0.01 0.01 0.02 0.01 0.01 0.01 0.01 0.01 0.01 0.01 0.01 0.01 0.03 0.03 0.04
0.00 0.00 0.00 0.00 0.00 0.00 0.00 0.00 0.00 0.00 0.00 0.00 0.00 0.00 0.00 0.00 0.00 0.00 0.00 0.00 0.00 0.01 0.02 0.02 0.02 0.02 0.02 0.01 0.02 0.03 0.03 0.03 0.03 0.04 0.03 0.02 0.01 0.01 0.01 0.01 0.02 0.03 0.04
0.00 0.00 0.00 0.00 0.00 0.00 0.00 0.00 0.00 0.00 0.00 0.00 0.00 0.00 0.00 0.00 0.00 0.00 0.00 0.00 0.00 0.00 0.01 0.02 0.02 0.02 0.02 0.02 0.02 0.03 0.03 0.03 0.03 0.03 0.02 0.01 0.01 0.01 0.02 0.02 0.01 0.02 0.03
MSLP
1007.53 1008.32 1009.21 1010.16 1011.13 1012.12 1013.11 1014.09 1015.08 1016.06 1017.01 1017.93 1018.78 1019.53 1020.17 1020.71 1021.14 1021.49 1021.79 1022.08 1022.38 1022.72 1023.10 1023.53 1023.99 1024.45 1024.90 1025.32 1025.68 1025.99 1026.26 1026.48 1026.68 1026.87 1027.05 1027.23 1027.40 1027.54 1027.66 1027.74 1027.77 1027.77 1027.73
1006.38 1007.22 1008.16 1009.15 1010.15 1011.16 1012.17 1013.19 1014.22 1015.27 1016.32 1017.33 1018.28 1019.13 1019.84 1020.42 1020.87 1021.23 1021.52 1021.80 1022.10 1022.45 1022.86 1023.33 1023.83 1024.34 1024.83 1025.27 1025.64 1025.95 1026.21 1026.42 1026.62 1026.81 1027.01 1027.21 1027.41 1027.59 1027.73 1027.84 1027.89 1027.90 1027.87
1005.32 1006.20 1007.18 1008.19 1009.20 1010.21 1011.23 1012.26 1013.33 1014.44 1015.56 1016.65 1017.69 1018.62 1019.40 1020.03 1020.51 1020.88 1021.18 1021.46 1021.76 1022.12 1022.55 1023.05 1023.58 1024.11 1024.62 1025.07 1025.45 1025.76 1026.01 1026.22 1026.43 1026.63 1026.85 1027.08 1027.32 1027.53 1027.71 1027.84 1027.91 1027.92 1027.90
1004.47 1005.38 1006.37 1007.39 1008.40 1009.39 1010.38 1011.40 1012.47 1013.60 1014.76 1015.91 1017.00 1017.99 1018.84 1019.51 1020.03 1020.42 1020.74 1021.03 1021.35 1021.72 1022.17 1022.68 1023.23 1023.78 1024.29 1024.75 1025.13 1025.44 1025.69 1025.91 1026.14 1026.37 1026.62 1026.89 1027.16 1027.41 1027.62 1027.77 1027.85 1027.86 1027.83
1003.92 1004.85 1005.84 1006.84 1007.81 1008.76 1009.70 1010.67 1011.71 1012.81 1013.96 1015.12 1016.25 1017.27 1018.16 1018.88 1019.44 1019.87 1020.22 1020.54 1020.88 1021.28 1021.75 1022.27 1022.83 1023.38 1023.90 1024.35 1024.73 1025.04 1025.31 1025.55 1025.80 1026.07 1026.36 1026.67 1026.98 1027.26 1027.49 1027.66 1027.74 1027.75 1027.71
1003.69 1004.63 1005.61 1006.58 1007.49 1008.37 1009.23 1010.12 1011.08 1012.11 1013.21 1014.35 1015.46 1016.50 1017.40 1018.16 1018.76 1019.24 1019.64 1020.00 1020.38 1020.81 1021.30 1021.84 1022.41 1022.96 1023.47 1023.92 1024.31 1024.63 1024.91 1025.18 1025.47 1025.77 1026.11 1026.46 1026.80 1027.11 1027.36 1027.53 1027.62 1027.63 1027.57
1003.74 1004.68 1005.64 1006.56 1007.41 1008.19 1008.95 1009.74 1010.59 1011.53 1012.55 1013.61 1014.68 1015.70 1016.61 1017.39 1018.04 1018.57 1019.02 1019.44 1019.88 1020.35 1020.87 1021.43 1022.00 1022.55 1023.06 1023.51 1023.90 1024.24 1024.54 1024.84 1025.16 1025.51 1025.88 1026.26 1026.64 1026.97 1027.23 1027.41 1027.50 1027.50 1027.44
1003.93 1004.88 1005.82 1006.69 1007.47 1008.16 1008.82 1009.49 1010.22 1011.05 1011.96 1012.95 1013.95 1014.93 1015.83 1016.62 1017.30 1017.88 1018.40 1018.89 1019.38 1019.90 1020.45 1021.03 1021.61 1022.16 1022.67 1023.13 1023.52 1023.87 1024.20 1024.53 1024.88 1025.26 1025.66 1026.07 1026.46 1026.80 1027.07 1027.25 1027.35 1027.36 1027.30
1004.14 1005.08 1006.00 1006.83 1007.55 1008.16 1008.73 1009.30 1009.92 1010.64 1011.45 1012.35 1013.28 1014.20 1015.08 1015.87 1016.58 1017.20 1017.78 1018.32 1018.87 1019.44 1020.02 1020.62 1021.21 1021.77 1022.28 1022.74 1023.15 1023.51 1023.86 1024.22 1024.60 1025.00 1025.42 1025.84 1026.23 1026.57 1026.84 1027.03 1027.12 1027.14 1027.10
1004.23 1005.17 1006.06 1006.86 1007.53 1008.09 1008.59 1009.09 1009.64 1010.27 1011.00 1011.81 1012.66 1013.53 1014.37 1015.16 1015.88 1016.53 1017.15 1017.74 1018.34 1018.94 1019.56 1020.17 1020.77 1021.34 1021.86 1022.32 1022.73 1023.12 1023.49 1023.86 1024.25 1024.67 1025.09 1025.51 1025.90 1026.23 1026.49 1026.67 1026.77 1026.80 1026.77
1004.13 1005.05 1005.92 1006.68 1007.33 1007.86 1008.34 1008.80 1009.31 1009.89 1010.56 1011.31 1012.11 1012.93 1013.73 1014.50 1015.21 1015.88 1016.51 1017.13 1017.75 1018.38 1019.02 1019.65 1020.26 1020.83 1021.35 1021.82 1022.25 1022.64 1023.03 1023.41 1023.81 1024.23 1024.64 1025.04 1025.41 1025.72 1025.96 1026.13 1026.22 1026.26 1026.26
1003.88 1004.76 1005.59 1006.33 1006.95 1007.49 1007.96 1008.43 1008.94 1009.51 1010.16 1010.87 1011.63 1012.40 1013.16 1013.89 1014.58 1015.24 1015.87 1016.50 1017.13 1017.77 1018.41 1019.05 1019.66 1020.24 1020.77 1021.25 1021.69 1022.10 1022.49 1022.88 1023.28 1023.68 1024.07 1024.45 1024.78 1025.06 1025.27 1025.41 1025.49 1025.53 1025.54
1003.58 1004.40 1005.17 1005.87 1006.49 1007.03 1007.53 1008.03 1008.56 1009.15 1009.79 1010.49 1011.22 1011.95 1012.67 1013.36 1014.01 1014.64 1015.26 1015.87 1016.49 1017.12 1017.76 1018.40 1019.02 1019.60 1020.14 1020.63 1021.08 1021.51 1021.91 1022.30 1022.68 1023.06 1023.42 1023.75 1024.04 1024.27 1024.44 1024.55 1024.62 1024.64 1024.65
1003.43 1004.14 1004.84 1005.48 1006.07 1006.61 1007.14 1007.67 1008.24 1008.86 1009.52 1010.21 1010.92 1011.62 1012.30 1012.94 1013.56 1014.14 1014.72 1015.31 1015.91 1016.52 1017.15 1017.78 1018.40 1018.99 1019.54 1020.04 1020.51 1020.94 1021.34 1021.73 1022.09 1022.44 1022.76 1023.05 1023.28 1023.46 1023.57 1023.64 1023.67 1023.67 1023.67
1003.58 1004.17 1004.75 1005.32 1005.86 1006.38 1006.92 1007.47 1008.07 1008.71 1009.39 1010.08 1010.78 1011.45 1012.09 1012.69 1013.26 1013.80 1014.34 1014.90 1015.47 1016.06 1016.67 1017.29 1017.90 1018.49 1019.05 1019.56 1020.03 1020.47 1020.87 1021.25 1021.59 1021.90 1022.18 1022.40 1022.58 1022.69 1022.75 1022.77 1022.75 1022.72 1022.69
1004.17 1004.61 1005.07 1005.53 1005.99 1006.47 1006.98 1007.54 1008.14 1008.79 1009.47 1010.15 1010.82 1011.47 1012.08 1012.64 1013.17 1013.68 1014.19 1014.71 1015.26 1015.83 1016.42 1017.02 1017.62 1018.20 1018.75 1019.27 1019.74 1020.17 1020.56 1020.92 1021.23 1021.50 1021.73 1021.90 1022.01 1022.06 1022.06 1022.02 1021.95 1021.88 1021.81
1005.24 1005.53 1005.84 1006.18 1006.54 1006.95 1007.41 1007.93 1008.51 1009.13 1009.78 1010.44 1011.09 1011.71 1012.29 1012.83 1013.34 1013.83 1014.31 1014.81 1015.33 1015.88 1016.45 1017.03 1017.61 1018.17 1018.70 1019.20 1019.66 1020.07 1020.44 1020.77 1021.05 1021.28 1021.45 1021.56 1021.62 1021.61 1021.55 1021.46 1021.34 1021.22 1021.12
1006.72 1006.87 1007.05 1007.27 1007.53 1007.84 1008.22 1008.66 1009.18 1009.75 1010.35 1010.97 1011.59 1012.18 1012.74 1013.27 1013.77 1014.25 1014.73 1015.22 1015.72 1016.24 1016.78 1017.33 1017.87 1018.39 1018.89 1019.35 1019.77 1020.15 1020.49 1020.78 1021.02 1021.20 1021.33 1021.39 1021.39 1021.34 1021.23 1021.09 1020.93 1020.78 1020.64
1008.45 1008.51 1008.58 1008.69 1008.84 1009.06 1009.34 1009.69 1010.12 1010.61 1011.15 1011.72 1012.29 1012.86 1013.40 1013.93 1014.44 1014.93 1015.41 1015.89 1016.38 1016.87 1017.37 1017.86 1018.35 1018.81 1019.25 1019.65 1020.02 1020.35 1020.64 1020.89 1021.08 1021.22 1021.31 1021.33 1021.29 1021.19 1021.05 1020.87 1020.69 1020.50 1020.34
1010.23 1010.24 1010.26 1010.30 1010.37 1010.50 1010.68 1010.94 1011.27 1011.67 1012.13 1012.63 1013.16 1013.70 1014.24 1014.77 1015.28 1015.78 1016.27 1016.75 1017.22 1017.67 1018.12 1018.55 1018.96 1019.34 1019.70 1020.03 1020.33 1020.59 1020.83 1021.02 1021.17 1021.27 1021.32 1021.31 1021.24 1021.12 1020.96 1020.76 1020.56 1020.36 1020.18
1011.88 1011.89 1011.91 1011.93 1011.96 1012.03 1012.14 1012.31 1012.55 1012.86 1013.24 1013.67 1014.15 1014.65 1015.18 1015.71 1016.24 1016.75 1017.24 1017.70 1018.14 1018.55 1018.93 1019.27 1019.59 1019.88 1020.15 1020.39 1020.60 1020.80 1020.98 1021.12 1021.23 1021.30 1021.32 1021.29 1021.21 1021.07 1020.90 1020.70 1020.49 1020.28 1020.09
1013.28 1013.35 1013.41 1013.46 1013.50 1013.54 1013.61 1013.72 1013.88 1014.11 1014.41 1014.77 1015.20 1015.67 1016.18 1016.70 1017.22 1017.73 1018.21 1018.65 1019.05 1019.40 1019.70 1019.95 1020.17 1020.36 1020.52 1020.67 1020.81 1020.94 1021.06 1021.16 1021.24 1021.29 1021.29 1021.25 1021.17 1021.03 1020.86 1020.66 1020.45 1020.24 1020.05
1014.39 1014.56 1014.71 1014.82 1014.91 1014.97 1015.02 1015.10 1015.20 1015.37 1015.60 1015.90 1016.27 1016.70 1017.18 1017.68 1018.18 1018.67 1019.12 1019.53 1019.87 1020.15 1020.36 1020.52 1020.64 1020.73 1020.80 1020.87 1020.94 1021.01 1021.08 1021.16 1021.21 1021.25 1021.25 1021.21 1021.13 1021.00 1020.84 1020.65 1020.44 1020.23 1020.04
1015.26 1015.55 1015.81 1016.01 1016.16 1016.26 1016.33 1016.40 1016.47 1016.59 1016.77 1017.01 1017.32 1017.70 1018.14 1018.60 1019.07 1019.52 1019.93 1020.28 1020.55 1020.76 1020.89 1020.96 1020.99 1021.00 1020.99 1020.99 1021.00 1021.04 1021.08 1021.14 1021.19 1021.23 1021.23 1021.20 1021.13 1021.01 1020.86 1020.67 1020.47 1020.27 1020.06
1016.01 1016.40 1016.75 1017.05 1017.27 1017.43 1017.53 1017.60 1017.66 1017.75 1017.88 1018.07 1018.33 1018.66 1019.03 1019.45 1019.86 1020.25 1020.60 1020.89 1021.10 1021.23 1021.28 1021.28 1021.24 1021.18 1021.12 1021.07 1021.05 1021.06 1021.10 1021.15 1021.21 1021.25 1021.27 1021.25 1021.19 1021.08 1020.94 1020.76 1020.56 1020.35 1020.13
1016.75 1017.20 1017.63 1017.99 1018.27 1018.48 1018.61 1018.69 1018.75 1018.81 1018.90 1019.05 1019.26 1019.52 1019.84 1020.19 1020.54 1020.87 1021.15 1021.37 1021.51 1021.57 1021.56 1021.50 1021.41 1021.31 1021.21 1021.14 1021.11 1021.12 1021.15 1021.21 1021.28 1021.34 1021.36 1021.36 1021.30 1021.21 1021.06 1020.89 1020.68 1020.46 1020.23
Thickness
5534 5530 5527 5523 5520 5518 5516 5514 5511 5509 5508 5507 5506 5504 5503 5504 5505 5505 5506 5507 5508 5510 5511 5512 5514 5515 5516 5517 5519 5521 5523 5526 5529 5533 5536 5539 5542 5545 5546 5546 5547 5548 5549
5526 5522 5518 5515 5512 5510 5507 5505 5502 5500 5498 5497 5496 5494 5493 5493 5493 5494 5494 5495 5496 5497 5498 5499 5500 5502 5503 5504 5505 5507 5509 5510 5513 5514 5518 5522 5527 5529 5532 5532 5534 5534 5535
5522 5516 5512 5508 5504 5502 5499 5498 5494 5491 5489 5487 5485 5483 5482 5481 5481 5481 5482 5482 5483 5484 5485 5486 5488 5488 5490 5490 5491 5492 5494 5494 5496 5498 5500 5502 5506 5510 5516 5517 5519 5520 5520
5517 5511 5506 5501 5497 5494 5491 5489 5485 5482 5479 5477 5474 5473 5471 5470 5470 5469 5470 5470 5471 5472 5473 5474 5474 5475 5476 5477 5477 5478 5479 5480 5481 5482 5484 5484 5486 5489 5496 5501 5502 5503 5505
5511 5505 5501 5496 5491 5486 5483 5479 5476 5473 5470 5467 5465 5462 5460 5459 5458 5458 5458 5459 5459 5459 5460 5460 5461 5461 5462 5462 5463 5464 5464 5464 5465 5465 5467 5469 5470 5472 5475 5481 5484 5486 5489
5503 5497 5492 5486 5481 5477 5474 5470 5467 5463 5460 5457 5454 5452 5450 5448 5446 5446 5446 5446 5446 5446 5446 5447 5447 5447 5447 5448 5448 5448 5449 5449 5450 5450 5451 5452 5454 5455 5457 5461 5465 5468 5472
5494 5488 5482 5477 5472 5468 5465 5461 5458 5454 5450 5447 5445 5442 5439 5437 5435 5434 5433 5433 5433 5433 5433 5433 5433 5433 5434 5433 5433 5434 5434 5434 5435 5435 5436 5437 5438 5439 5440 5443 5446 5449 5455
5484 5480 5476 5470 5465 5461 5456 5452 5449 5445 5441 5438 5435 5432 5429 5427 5425 5423 5421 5420 5420 5420 5420 5420 5420 5420 5420 5419 5419 5419 5419 5419 5420 5420 5420 5421 5422 5423 5424 5426 5428 5431 5437
5474 5470 5466 5461 5456 5452 5448 5444 5440 5435 5432 5428 5425 5422 5419 5416 5414 5412 5410 5408 5407 5407 5407 5406 5406 5406 5405 5405 5405 5405 5404 5404 5404 5405 5406 5406 5406 5407 5408 5409 5410 5412 5417
5463 5459 5455 5451 5447 5443 5439 5434 5430 5426 5422 5418 5415 5412 5409 5406 5403 5400 5398 5396 5395 5394 5394 5393 5393 5392 5391 5390 5390 5390 5390 5389 5390 5390 5390 5390 5390 5391 5392 5394 5395 5396 5398
5451 5447 5443 5440 5436 5432 5428 5423 5419 5415 5411 5408 5405 5401 5398 5395 5392 5389 5387 5385 5383 5382 5381 5380 5379 5378 5377 5376 5376 5376 5376 5375 5376 5375 5375 5375 5375 5375 5377 5378 5379 5381 5381
5440 5436 5431 5427 5423 5420 5417 5413 5409 5405 5402 5398 5394 5390 5387 5384 5380 5378 5375 5373 5371 5369 5368 5366 5365 5365 5364 5363 5362 5362 5362 5361 5360 5360 5359 5359 5360 5360 5361 5362 5364 5365 5367
5429 5424 5419 5416 5412 5409 5406 5402 5398 5395 5391 5387 5383 5379 5376 5372 5369 5366 5364 5362 5359 5357 5354 5352 5351 5351 5350 5349 5348 5348 5347 5346 5346 5345 5345 5345 5345 5346 5346 5347 5349 5351 5353
5418 5413 5408 5404 5401 5398 5394 5391 5387 5384 5380 5376 5372 5368 5364 5361 5358 5355 5352 5349 5347 5344 5342 5339 5337 5336 5335 5335 5334 5333 5333 5332 5332 5331 5331 5331 5331 5332 5332 5334 5335 5337 5339
5408 5403 5398 5393 5389 5385 5382 5379 5375 5372 5369 5365 5361 5357 5353 5349 5346 5343 5340 5337 5334 5331 5329 5326 5324 5322 5321 5321 5320 5320 5319 5318 5318 5317 5317 5318 5318 5318 5319 5321 5322 5323 5325
5397 5393 5388 5383 5378 5374 5370 5367 5363 5360 5357 5353 5349 5345 5341 5337 5334 5330 5327 5324 5321 5319 5316 5313 5311 5309 5308 5308 5308 5307 5306 5305 5304 5304 5305 5304 5305 5306 5307 5308 5309 5310 5312
5385 5380 5376 5371 5367 5362 5359 5355 5351 5348 5344 5340 5337 5333 5329 5325 5321 5318 5315 5312 5309 5306 5303 5301 5299 5297 5296 5295 5295 5294 5293 5292 5291 5290 5291 5292 5293 5294 5294 5296 5297 5299 5300
5370 5366 5361 5358 5353 5350 5346 5342 5338 5334 5331 5327 5323 5320 5316 5313 5309 5306 5303 5299 5297 5293 5291 5289 5287 5285 5283 5283 5282 5281 5280 5279 5278 5278 5278 5279 5281 5281 5283 5285 5286 5288 5290
5356 5351 5347 5343 5339 5336 5332 5328 5324 5320 5316 5313 5309 5307 5304 5300 5297 5293 5290 5287 5284 5281 5279 5277 5275 5273 5272 5270 5270 5269 5268 5268 5267 5267 5267 5267 5269 5271 5271 5273 5275 5278 5279
5342 5337 5333 5329 5325 5322 5318 5314 5310 5306 5302 5299 5296 5293 5290 5287 5284 5281 5277 5274 5271 5269 5267 5265 5263 5261 5260 5259 5258 5257 5256 5257 5257 5256 5256 5257 5258 5259 5259 5260 5262 5265 5269
5328 5324 5319 5315 5311 5308 5305 5300 5296 5292 5289 5286 5283 5280 5277 5274 5271 5268 5265 5262 5259 5257 5254 5253 5251 5249 5248 5247 5246 5245 5245 5245 5245 5245 5245 5246 5247 5248 5249 5250 5251 5254 5257
5315 5310 5306 5301 5297 5294 5291 5286 5282 5279 5276 5273 5270 5267 5264 5261 5259 5255 5253 5250 5246 5244 5242 5240 5239 5238 5236 5235 5234 5234 5234 5233 5233 5234 5235 5236 5237 5239 5240 5240 5241 5243 5244
5301 5297 5293 5288 5284 5281 5277 5273 5270 5266 5263 5260 5256 5254 5251 5248 5246 5243 5240 5237 5234 5231 5229 5227 5227 5226 5226 5224 5223 5223 5223 5223 5223 5224 5225 5227 5228 5229 5229 5229 5230 5231 5232
5288 5284 5280 5275 5271 5268 5265 5261 5258 5254 5250 5247 5244 5241 5238 5236 5233 5230 5228 5225 5221 5218 5217 5216 5216 5215 5213 5212 5212 5211 5211 5212 5212 5213 5215 5216 5217 5217 5218 5219 5218 5218 5219
5276 5272 5267 5263 5259 5255 5251 5248 5245 5241 5237 5234 5231 5229 5226 5223 5221 5218 5215 5212 5210 5207 5206 5205 5203 5203 5202 5202 5202 5201 5202 5201 5202 5203 5203 5204 5204 5204 5205 5207 5207 5207 5208
5263 5259 5255 5251 5246 5242 5239 5236 5233 5229 5225 5223 5220 5217 5214 5212 5209 5206 5204 5202 5200 5198 5196 5195 5193 5192 5192 5192 5192 5191 5191 5192 5192 5191 5191 5190 5191 5192 5193 5195 5196 5197 5198